Alpena, MI

6:30 PM EST on February 08, 2016 (GMT -0500)
Alpena County Regional

Weather History for KAPN - April, 2013

Change the Weather History Date:

Thursday, April 18, 2013

  Actual Average Record
Temperature  
Mean Temperature 43 °F 43 °F  
Max Temperature 47 °F 54 °F 85 °F (1976)
Min Temperature 38 °F 32 °F 16 °F (1926)
Degree Days  
Heating Degree Days 22 22  
Month to date heating degree days 540 465  
Since 1 July heating degree days 6991 7321  
Cooling Degree Days 0 0  
Month to date cooling degree days 0 0  
Year to date cooling degree days 0 0  
Moisture  
Dew Point 40 °F    
Average Humidity 96    
Maximum Humidity 100    
Minimum Humidity 92    
Precipitation  
Precipitation 0.93 in 0.09 in 1.00 in (1955)
Month to date precipitation 3.83 1.47  
Year to date precipitation 9.69 6.31  
Snow  
Snow 0.00 in 0.20 in 4.00 in (1918)
Month to date snowfall 2.8 4.7  
Since 1 July snowfall 48.3 83.0  
Snow Depth 0.00 in    
Sea Level Pressure  
Sea Level Pressure 29.72 in    
Wind  
Wind Speed 6 mph (East)    
Max Wind Speed 17 mph    
Max Gust Speed 25 mph    
Visibility 6 miles    
Events Rain , Thunderstorm    
T = Trace of Precipitation, MM = Missing Value Source: NWS Daily Summary

Daily Weather History Graph

Daily Weather History Graph

Search for Another Location

Airport or City:

Trip Planner

Search our weather history database for the weather conditions in past years. The results will help you decide how hot, cold, wet, or windy it might be!

Date:

Astronomy

Apr. 18, 2013 Rise Set
Actual Time 6:43 AM EDT 8:23 PM EDT
Civil Twilight 6:12 AM EDT 8:55 PM EDT
Nautical Twilight 5:35 AM EDT 9:32 PM EDT
Astronomical Twilight 4:54 AM EDT 10:13 PM EDT
Moon 12:51 PM EDT (4/18) 2:41 AM EDT (4/18)
Length of Visible Light 14h 42m
Length of Day
13h 40m
First Quarter, 51% of the Moon is Illuminated
Apr 18
First Quarter
Apr 25
Full
May 2
Last Quarter
May 9
New
May 18
First Quarter

Hourly Weather History & Observations

Time (EDT) Temp. Windchill Dew Point Humidity Pressure Visibility Wind Dir Wind Speed Gust Speed Precip Events Conditions
12:13 AM 37.4 °F 30.8 °F 33.8 °F 87% 30.14 in 5.0 mi ESE 9.2 mph - 0.00 in Rain Light Rain
12:45 AM 37.4 °F 31.4 °F 35.6 °F 93% 30.11 in 6.0 mi ESE 8.1 mph - 0.00 in   Overcast
12:54 AM 37.0 °F 29.3 °F 36.0 °F 96% 30.12 in 6.0 mi ESE 11.5 mph - 0.00 in   Overcast
1:24 AM 37.4 °F 30.8 °F 37.4 °F 100% 30.07 in 10.0 mi ESE 9.2 mph - N/A   Overcast
1:54 AM 39.0 °F 34.0 °F 37.9 °F 96% 30.06 in 9.0 mi East 6.9 mph - N/A   Overcast
2:44 AM 39.2 °F 32.5 °F 37.4 °F 93% 30.02 in 8.0 mi ESE 10.4 mph - 0.00 in Rain Light Rain
2:54 AM 39.0 °F 33.4 °F 37.9 °F 96% 30.04 in 10.0 mi East 8.1 mph - 0.00 in   Overcast
3:13 AM 39.2 °F 34.2 °F 37.4 °F 93% 30.00 in 10.0 mi East 6.9 mph - N/A   Overcast
3:54 AM 39.9 °F 33.4 °F 37.0 °F 89% 30.00 in 10.0 mi ESE 10.4 mph - 0.00 in   Overcast
4:13 AM 39.2 °F 32.0 °F 37.4 °F 93% 29.96 in 10.0 mi ESE 11.5 mph - N/A   Overcast
4:22 AM 39.2 °F 32.5 °F 37.4 °F 93% 29.95 in 10.0 mi ESE 10.4 mph - N/A   Overcast
4:31 AM 39.2 °F 32.0 °F 37.4 °F 93% 29.95 in 10.0 mi ESE 11.5 mph 20.7 mph N/A   Overcast
4:54 AM 39.0 °F 31.8 °F 37.0 °F 93% 29.95 in 10.0 mi ESE 11.5 mph - N/A   Overcast
5:28 AM 39.2 °F 32.0 °F 37.4 °F 93% 29.90 in 6.0 mi East 11.5 mph 18.4 mph 0.01 in Rain Light Rain
5:54 AM 39.0 °F 31.4 °F 37.0 °F 93% 29.90 in 6.0 mi ESE 12.7 mph 20.7 mph 0.04 in Rain Light Rain
6:54 AM 37.9 °F 28.9 °F 36.0 °F 93% 29.88 in 6.0 mi ESE 16.1 mph 23.0 mph 0.11 in Rain Light Rain
7:04 AM 37.4 °F 29.3 °F 35.6 °F 93% 29.85 in 6.0 mi ESE 12.7 mph 21.9 mph 0.02 in Rain Rain
7:54 AM 37.9 °F 29.6 °F 36.0 °F 93% 29.84 in 3.0 mi ESE 13.8 mph 19.6 mph 0.22 in Rain Rain
8:54 AM 37.9 °F 30.0 °F 37.0 °F 97% 29.76 in 5.0 mi ESE 12.7 mph - 0.11 in Rain Light Rain
9:54 AM 39.0 °F 31.4 °F 37.9 °F 96% 29.70 in 6.0 mi East 12.7 mph 19.6 mph 0.07 in Rain Light Rain
10:54 AM 39.0 °F 35.7 °F 39.0 °F 100% 29.68 in 6.0 mi ENE 4.6 mph - 0.02 in Rain Light Rain
11:54 AM 41.0 °F - 39.0 °F 93% 29.67 in 4.0 mi Calm Calm - 0.01 in Rain Light Rain
12:04 PM 41.0 °F - 39.2 °F 93% 29.64 in 2.5 mi Calm Calm - 0.00 in Rain Light Rain
12:16 PM 41.0 °F 39.0 °F 39.2 °F 93% 29.62 in 3.0 mi ENE 3.5 mph - 0.00 in   Overcast
12:47 PM 42.8 °F - 41.0 °F 93% 29.60 in 2.0 mi Calm Calm - 0.00 in Rain Light Rain
12:54 PM 42.1 °F - 41.0 °F 96% 29.62 in 1.2 mi Calm Calm - 0.00 in   Overcast
1:03 PM 42.8 °F 40.1 °F 41.0 °F 93% 29.64 in 1.2 mi WSW 4.6 mph - 0.01 in Rain , Thunderstorm Thunderstorms and Rain
1:28 PM 42.8 °F 39.3 °F 41.0 °F 93% 29.58 in 2.5 mi NNE 5.8 mph - 0.12 in Rain , Thunderstorm Light Thunderstorms and Rain
1:35 PM 42.8 °F 39.3 °F 41.0 °F 93% 29.57 in 4.0 mi NNE 5.8 mph - 0.12 in Rain , Thunderstorm Light Thunderstorms and Rain
1:52 PM 42.8 °F - 41.0 °F 93% 29.60 in 1.8 mi Calm Calm - 0.16 in Rain , Thunderstorm Thunderstorms and Rain
1:54 PM 42.1 °F - 41.0 °F 96% 29.61 in 1.8 mi Calm Calm - 0.17 in Rain , Thunderstorm Thunderstorms and Rain
2:10 PM 42.8 °F 38.6 °F 42.8 °F 100% 29.51 in 3.0 mi NNE 6.9 mph - 0.06 in Rain , Thunderstorm Light Thunderstorms and Rain
2:17 PM 44.6 °F 43.1 °F 42.8 °F 93% 29.53 in 9.0 mi NE 3.5 mph - 0.06 in Rain Light Rain
2:54 PM 45.0 °F 41.8 °F 43.0 °F 93% 29.54 in 6.0 mi North 5.8 mph - 0.07 in Rain Light Rain
3:54 PM 44.1 °F 41.5 °F 43.0 °F 96% 29.57 in 4.0 mi NNW 4.6 mph - 0.01 in Rain Light Rain
4:54 PM 45.0 °F - 43.0 °F 93% 29.57 in 10.0 mi Calm Calm - 0.01 in   Overcast
5:54 PM 46.0 °F - 44.1 °F 93% 29.57 in 10.0 mi Calm Calm - N/A   Overcast
6:54 PM 46.9 °F - 45.0 °F 93% 29.58 in 10.0 mi South 3.5 mph - N/A   Overcast
7:37 PM 46.4 °F - 44.6 °F 93% 29.56 in 2.0 mi Calm Calm - 0.00 in Rain Light Rain
7:54 PM 46.0 °F - 45.0 °F 96% 29.58 in 2.5 mi Calm Calm - 0.00 in Rain Light Rain
8:10 PM 46.4 °F 44.3 °F 44.6 °F 93% 29.57 in 2.5 mi North 4.6 mph - 0.01 in Rain Light Rain
8:22 PM 46.4 °F 45.2 °F 44.6 °F 93% 29.56 in 3.0 mi NNE 3.5 mph - 0.01 in Rain Light Rain
8:38 PM 46.4 °F 45.2 °F 44.6 °F 93% 29.56 in 2.5 mi NE 3.5 mph - 0.02 in Rain Light Rain
8:54 PM 46.0 °F 44.8 °F 45.0 °F 96% 29.57 in 2.0 mi NE 3.5 mph - 0.03 in Rain Light Rain
9:12 PM 46.4 °F 45.2 °F 44.6 °F 93% 29.55 in 4.0 mi NE 3.5 mph - 0.00 in Rain Light Rain
9:22 PM 46.4 °F 44.3 °F 44.6 °F 93% 29.54 in 7.0 mi East 4.6 mph - 0.00 in   Overcast
9:54 PM 45.0 °F 42.6 °F 44.1 °F 97% 29.54 in 6.0 mi East 4.6 mph - 0.00 in   Overcast
10:06 PM 44.6 °F 41.4 °F 44.6 °F 100% 29.54 in 1.8 mi SE 5.8 mph - N/A   Overcast
10:54 PM 42.1 °F - 42.1 °F 100% 29.56 in 3.0 mi Calm Calm - 0.04 in Rain Light Rain
11:13 PM 42.8 °F 41.1 °F 41.0 °F 93% 29.53 in 2.5 mi ESE 3.5 mph - 0.01 in Rain Light Rain
11:21 PM 42.8 °F 41.1 °F 41.0 °F 93% 29.53 in 4.0 mi SE 3.5 mph - 0.01 in Rain Light Rain
11:54 PM 42.1 °F 39.2 °F 41.0 °F 96% 29.52 in 6.0 mi ESE 4.6 mph - 0.02 in   Overcast